Погода в Сухуме

Абхазия     43°00′13″N   41°01′08″E
В апреле 2022 года жителям России запретили посещать сайт meteo.paraplan.net по решению Генеральной прокуратуры. Аудитория сайта уменьшилась в 10 раз. Владельцы сайта не видят смысла в поддержке погодного сервера в таких условиях. Сайт будет закрыт в октябре.
темп.,
°C
ветер,
м/с
пор.,
м/с
влажн.,
%
обл.,
%
осадки,
мм/ч
давл.,
гПа
погр.,
м
4 октября, вт
вт400:00+17всв2386100 0.1 1013120
03:00+17ююз0182100 0.4 101283
06:00+17с1186100 0.8 101254
09:00+19зсз1281100 1.3 1013211
12:00+20з1176100 0.3 1015297
15:00+20зсз2383100 0.8 1015197
18:00+18сз5690100 1.6 1016230
21:00+18з0190100 4.2 101794
5 октября, ср
ср500:00+18в229387 1.0 1018121
03:00+17в1190100 1.3 1019112
06:00+17с1188100 0.6 101971
09:00+18вюв0190100 1.8 1021126
12:00+18с1194100 2.8 1022114
15:00+19зсз2291100 4.2 1022194
18:00+18зсз339237 0.2 1022178
21:00+18всв118999 0.5 1023123
6 октября, чт
чт600:00+18в2290100 0.4 1023147
03:00+17вюв2290100 1.8 1023191
06:00+17вюв2394100 1.4 1023176
09:00+17всв239198 3.7 1023146
12:00+20ю1177100 0.1 1023523
15:00+19ююз118289 0.4 1022277
18:00+18зсз118512 0.1 1022149
21:00+17св228810 0.1 102377
7 октября, пт
пт700:00+16всв228824 0.0 102383
03:00+16св22862 0.0 102279
06:00+15св22812 0.0 102169
09:00+19сз01690 0.0 1020245
12:00+21з32660 0.0 1019551
15:00+21зюз33720 0.0 1018497
18:00+18сз33850 0.0 1017171
21:00+17св11860 0.0 101878
8 октября, сб
сб800:00+17с228754 0.0 101665
03:00+17с228231 0.0 101478
06:00+17с227424 0.0 101373
09:00+21зсз126338 0.0 1013249
12:00+22з4464100 0.0 1013561
15:00+22зсз3365100 0.0 1012347
18:00+20сз2279100 0.0 101254
21:00+18в3488100 0.8 1015150